Total_Precipitation_Accumulation
1.88 2.02 2.02 1.42 1.12 0.99 1.00 0.96 0.94 0.91 0.88 0.93 1.04 1.11 1.05 1.05 1.08 1.16 1.28 1.49 1.56 1.68 1.94 2.10 2.16 2.05 1.84 1.70 1.65 1.48 1.26 1.30 1.38 1.40 1.40 1.45 1.52 1.79 2.19 2.03 1.85 1.36 1.28
1.40 1.55 1.70 1.30 0.97 0.91 0.89 0.88 0.86 0.84 0.83 0.82 0.89 1.04 1.11 1.23 1.28 1.29 1.38 1.57 1.70 1.98 2.06 2.05 1.98 1.75 1.68 1.52 1.41 1.34 1.27 1.36 1.47 1.51 1.43 1.32 1.58 1.94 2.20 2.01 2.01 1.34 1.28
1.02 1.09 1.13 1.12 0.90 0.80 0.82 0.84 0.84 0.84 0.81 0.74 0.81 0.98 1.15 1.38 1.53 1.52 1.51 1.75 2.05 2.11 2.04 1.98 1.68 1.45 1.39 1.25 1.21 1.22 1.27 1.40 1.51 1.73 1.78 1.33 1.28 1.93 2.00 1.85 1.51 1.13 1.14
0.79 0.81 0.76 0.84 0.81 0.75 0.75 0.73 0.73 0.75 0.75 0.74 0.83 0.99 1.15 1.29 1.46 1.57 1.64 1.90 2.10 2.00 1.95 1.68 1.40 1.23 1.15 1.03 1.04 1.08 1.19 1.41 1.70 2.08 2.09 1.60 1.04 1.49 1.75 1.57 1.30 1.09 1.04
0.71 0.68 0.79 0.80 0.74 0.71 0.67 0.69 0.69 0.73 0.74 0.77 0.84 0.95 1.09 1.28 1.48 1.62 1.62 1.81 1.84 1.70 1.62 1.46 1.31 1.11 0.99 0.91 0.92 1.02 1.19 1.49 1.72 1.96 1.80 1.70 1.48 1.54 1.58 1.49 1.34 1.24 1.13
0.71 0.68 0.76 0.79 0.72 0.73 0.65 0.61 0.65 0.69 0.75 0.79 0.90 1.01 1.11 1.34 1.48 1.52 1.58 1.77 1.68 1.60 1.51 1.39 1.20 0.99 0.86 0.82 0.87 0.96 1.16 1.49 1.52 1.29 1.30 1.40 1.30 1.43 1.44 1.55 1.45 1.27 1.15
0.92 0.89 0.82 0.85 0.82 0.75 0.64 0.59 0.63 0.68 0.75 0.79 0.91 1.02 1.09 1.24 1.30 1.38 1.56 1.68 1.56 1.49 1.35 1.23 1.08 0.90 0.88 0.92 0.91 0.92 1.19 1.47 1.29 1.10 1.16 1.49 1.34 1.17 1.42 1.66 1.61 1.39 1.18
0.96 0.99 0.96 1.00 0.95 0.88 0.71 0.64 0.69 0.76 0.82 0.85 0.89 0.95 1.01 1.08 1.12 1.28 1.54 1.61 1.46 1.27 1.16 1.15 1.06 0.93 0.91 0.97 0.91 0.94 1.18 1.28 1.01 1.05 1.00 1.14 1.04 1.09 1.39 1.60 1.60 1.47 1.30
1.13 1.09 1.06 1.04 0.91 0.93 0.90 0.78 0.82 0.92 0.95 0.92 0.90 0.93 0.97 1.03 1.13 1.30 1.59 1.62 1.41 1.17 1.07 1.06 1.03 0.95 0.87 0.94 0.99 1.07 1.28 1.43 1.22 1.26 0.95 1.07 1.03 1.22 1.50 1.63 1.64 1.57 1.50
1.53 1.31 1.18 1.22 1.20 1.05 1.00 0.95 1.04 1.11 1.12 1.10 1.03 1.08 1.14 1.23 1.29 1.50 1.65 1.58 1.39 1.21 1.11 1.05 1.02 0.94 0.92 0.95 1.01 1.23 1.53 1.40 1.04 1.12 1.15 1.01 1.11 1.47 1.82 1.77 1.78 1.80 1.76
1.89 1.64 1.40 1.29 1.25 1.17 1.10 1.16 1.44 1.44 1.38 1.35 1.37 1.41 1.46 1.66 1.81 2.03 1.82 1.71 1.52 1.40 1.40 1.33 1.32 1.21 1.12 1.05 1.21 1.48 1.47 1.24 1.29 1.37 1.32 1.12 1.35 1.76 2.08 2.05 2.00 1.99 1.96
2.06 1.72 1.66 1.54 1.38 1.27 1.11 1.24 1.66 1.54 1.49 1.62 1.76 1.70 1.92 2.30 2.58 2.25 2.14 2.11 2.07 2.01 1.92 1.94 2.00 1.64 1.36 1.47 1.97 2.03 1.42 1.36 1.53 1.56 1.49 1.43 1.73 2.18 2.43 2.39 2.36 2.20 2.14
2.27 1.92 1.82 1.70 1.61 1.60 1.70 1.51 1.64 1.75 1.85 1.95 1.98 2.08 2.27 2.33 2.49 2.49 2.45 2.48 2.52 2.38 2.25 2.49 2.47 1.92 1.99 2.41 2.52 2.24 1.69 1.64 1.80 1.73 1.82 1.89 1.98 2.50 2.97 2.87 2.80 2.56 2.37
2.50 2.20 1.98 1.83 1.83 1.92 1.87 1.83 1.75 1.83 1.88 2.08 2.28 2.28 2.53 2.89 2.96 2.95 2.87 2.72 2.78 2.79 3.01 2.99 3.08 2.64 2.63 2.48 2.36 2.32 2.13 2.20 2.10 2.28 2.66 2.40 2.20 2.56 3.29 3.38 3.27 2.98 2.57
2.65 2.33 2.28 2.01 1.95 2.01 2.17 2.29 2.04 2.26 2.29 2.36 2.58 2.73 2.85 3.15 3.19 3.16 3.07 3.06 2.77 2.87 3.05 3.42 3.32 3.50 3.46 3.06 2.62 2.46 2.49 2.56 2.49 2.58 2.87 2.88 2.71 2.80 3.60 4.06 3.91 3.56 3.07
2.62 2.43 2.36 2.24 2.29 2.37 2.40 2.51 2.62 2.78 2.88 2.82 2.85 2.97 3.04 3.23 3.51 3.50 3.39 3.32 2.99 2.89 3.18 3.52 3.51 3.99 3.87 3.69 3.15 2.83 2.67 2.65 2.62 2.74 3.04 3.22 3.15 3.12 3.59 4.17 4.39 4.28 3.83
2.40 2.47 2.60 2.72 2.93 3.02 3.04 3.03 3.01 3.14 3.16 3.29 3.57 3.67 3.69 3.57 3.68 3.57 3.50 3.33 3.26 3.22 3.40 3.48 3.60 4.01 3.76 3.70 3.53 3.21 3.00 2.80 2.66 2.88 3.25 3.57 3.22 3.16 3.54 4.04 4.46 4.45 4.26
2.41 2.52 2.76 2.84 3.24 3.43 3.52 3.64 3.57 3.53 3.51 3.77 3.98 4.15 4.08 3.89 3.71 3.76 3.50 3.26 3.39 3.38 3.59 3.88 3.87 3.95 4.06 3.98 3.78 3.46 3.32 3.21 2.78 2.82 2.98 3.16 3.38 2.94 3.35 4.03 4.34 4.09 4.12
2.77 3.05 3.38 3.46 3.44 3.56 3.79 3.96 3.75 3.73 3.70 3.71 3.77 4.00 3.93 3.66 3.51 3.81 3.61 3.58 3.58 3.79 3.71 3.42 3.97 4.17 4.16 4.06 3.52 3.47 3.11 3.07 2.99 2.74 2.85 2.93 3.15 3.11 3.17 3.33 3.95 3.76 3.96
3.15 3.53 3.76 3.81 4.05 4.37 4.58 4.48 4.24 3.87 3.62 3.52 3.51 3.59 3.55 3.50 3.39 3.68 3.46 3.44 3.66 4.04 4.13 4.03 4.27 4.20 4.05 4.11 3.46 3.26 2.95 2.67 2.68 2.63 2.45 2.72 2.81 2.55 2.76 3.00 3.41 2.94 3.19
3.20 3.40 3.73 4.17 4.55 4.67 4.49 4.41 4.38 4.14 3.83 3.46 3.24 3.24 3.31 3.16 3.22 3.59 3.28 3.69 3.77 3.97 4.13 4.10 4.32 4.25 4.03 4.16 4.10 3.52 2.90 2.51 2.45 2.28 2.29 2.50 2.43 2.50 2.83 3.27 3.53 3.42 3.02
2.99 3.28 3.72 4.18 4.51 4.41 4.52 4.74 4.70 4.49 3.81 3.45 3.32 3.23 3.13 3.02 2.99 3.12 3.66 3.64 3.78 3.99 4.03 4.00 4.08 3.88 3.62 3.97 4.25 4.08 3.37 2.93 2.51 2.06 2.28 2.29 2.43 2.72 2.75 2.80 3.23 3.58 3.38
3.02 3.47 3.80 4.10 4.24 4.25 4.45 4.59 4.31 4.11 3.62 3.48 3.46 3.29 3.13 3.12 3.10 3.23 3.49 3.58 3.66 3.56 3.80 3.99 3.80 3.74 3.63 3.69 3.94 4.15 3.66 3.08 2.61 2.30 2.16 2.19 2.55 2.81 2.67 2.61 2.57 2.83 2.91
3.01 3.59 4.00 4.03 4.09 3.94 4.05 4.17 4.01 3.68 3.44 3.34 3.32 3.09 2.97 2.90 2.89 3.01 3.17 3.36 3.52 3.45 3.61 3.49 3.52 3.66 3.68 3.52 3.68 3.63 3.51 3.30 3.14 2.72 2.32 2.19 2.39 2.49 2.47 2.28 2.29 2.61 2.79
2.73 3.13 3.54 3.90 3.94 3.73 3.65 3.70 3.85 3.69 3.41 3.20 3.10 3.01 2.94 2.91 2.72 2.71 2.92 3.16 3.32 3.21 3.17 3.37 3.66 3.59 3.48 3.44 3.57 3.62 3.79 3.61 3.28 3.12 2.74 2.48 2.32 2.07 2.15 2.19 2.19 2.31 2.56
2.54 2.88 3.18 3.39 3.36 3.28 3.23 3.26 3.39 3.47 3.44 3.19 2.99 3.02 2.97 2.83 2.67 2.60 2.70 3.03 3.14 3.07 3.02 3.12 3.21 3.25 3.28 3.44 3.44 3.35 3.57 3.59 3.43 3.46 3.06 2.71 2.43 1.98 1.90 2.00 2.11 2.24 2.38